Location: Unspecified
(50.7693°N, 0.0000°E)
Time: 09:32:09
(UTC+00:00)

Transit 2A - Pass Details

Date: 02 July 2019
Orbit: 594 x 964 km, 66.7° (Epoch: 19 July)

Event Time Altitude Azimuth Distance (km) Brightness Sun altitude
Rises 03:25:14 0° 312° (NW) 3,563 9.4 -3.9°
Reaches altitude 10° 03:28:40 10° 330° (NNW) 2,562 8.9 -3.5°
Maximum altitude 03:32:46 19° 14° (NNE) 1,931 9.0 -3.1°
Drops below altitude 10° 03:36:37 10° 58° (ENE) 2,390 10.4 -2.6°
Sets 03:39:40 0° 77° (ENE) 3,242 10.5 -2.2°
